Weather History for Roanoke, VA

Change the Weather History Date:

Wednesday, October 10, 2012

  Actual Average Record
Temperature  
Mean Temperature 55 °F 59 °F  
Max Temperature 66 °F 70 °F 90 °F (1939)
Min Temperature 44 °F 48 °F 30 °F (1917)
Degree Days  
Heating Degree Days 10 7  
Month to date heating degree days 72 55  
Since 1 July heating degree days 106 104  
Cooling Degree Days 0 1  
Month to date cooling degree days 12 12  
Year to date cooling degree days 1418 1198  
Growing Degree Days 5 (Base 50)    
Moisture  
Dew Point 44 °F    
Average Humidity 87    
Maximum Humidity 93    
Minimum Humidity 80    
Precipitation  
Precipitation 0.00 in 0.10 in 2.06 in (1990)
Month to date precipitation 1.11 0.92  
Year to date precipitation 29.53 32.94  
Snow  
Snow 0.00 in - - ()
Month to date snowfall 0.0  
Since 1 July snowfall T  
Since 1 September snowfall 0.0  
Snow Depth 0.00 in    
Sea Level Pressure  
Sea Level Pressure 30.06 in    
Wind  
Wind Speed 8 mph (WNW)    
Max Wind Speed 25 mph    
Max Gust Speed 35 mph    
Visibility 10 miles    
Events      
T = Trace of Precipitation, MM = Missing Value Source: NWS Daily Summary

Daily Weather History Graph

Daily Weather History Graph

Search for Another Location

Airport:

Trip Planner

Search our weather history database for the weather conditions in past years. The results will help you decide how hot, cold, wet, or windy it might be!

Date:

Astronomy

Oct. 10, 2012 Rise Set
Actual Time 7:23 AM EDT 6:49 PM EDT
Civil Twilight 6:57 AM EDT 7:15 PM EDT
Nautical Twilight 6:27 AM EDT 7:45 PM EDT
Astronomical Twilight 5:57 AM EDT 8:15 PM EDT
Moon 2:04 AM EDT (10/10) 3:45 PM EDT (10/10)
Length of Visible Light 12h 17m
Length of Day
11h 25m
Waning Crescent, 27% of the Moon is Illuminated
Oct 10
Waning Crescent
Oct 15
New
Oct 21
First Quarter
Oct 29
Full
Nov 6
Last Quarter

Hourly Weather History & Observations

Time (EDT) Temp. Dew Point Humidity Pressure Visibility Wind Dir Wind Speed Gust Speed Precip Events Conditions
12:54 AM 48.9 °F 46.0 °F 90% 30.09 in 10.0 mi Calm Calm - N/A   Mostly Cloudy
1:54 AM 50.0 °F 46.9 °F 89% 30.08 in 10.0 mi Calm Calm - N/A   Overcast
2:54 AM 50.0 °F 46.9 °F 89% 30.07 in 10.0 mi Calm Calm - N/A   Overcast
3:54 AM 50.0 °F 46.9 °F 89% 30.05 in 10.0 mi Calm Calm - N/A   Mostly Cloudy
4:54 AM 46.9 °F 45.0 °F 93% 30.05 in 10.0 mi Calm Calm - N/A   Partly Cloudy
5:54 AM 46.9 °F 45.0 °F 93% 30.04 in 3.0 mi Calm Calm - N/A   Partly Cloudy
6:54 AM 48.0 °F 44.1 °F 86% 30.06 in 10.0 mi NW 6.9 mph - N/A   Clear
7:54 AM 50.0 °F 44.1 °F 80% 30.06 in 10.0 mi Calm Calm - N/A   Partly Cloudy
8:54 AM 53.1 °F 45.0 °F 74% 30.06 in 10.0 mi West 6.9 mph - N/A   Partly Cloudy
9:54 AM 55.9 °F 46.0 °F 69% 30.06 in 10.0 mi WSW 8.1 mph - N/A   Partly Cloudy
10:54 AM 61.0 °F 46.0 °F 58% 30.04 in 10.0 mi West 8.1 mph - N/A   Partly Cloudy
11:54 AM 62.1 °F 46.0 °F 56% 30.04 in 10.0 mi WSW 8.1 mph - N/A   Overcast
12:54 PM 63.0 °F 45.0 °F 52% 30.03 in 10.0 mi WNW 17.3 mph 25.3 mph N/A   Mostly Cloudy
1:54 PM 64.9 °F 46.0 °F 50% 30.01 in 10.0 mi WNW 18.4 mph 32.2 mph N/A   Mostly Cloudy
2:54 PM 63.0 °F 45.0 °F 52% 30.00 in 10.0 mi West 12.7 mph 21.9 mph N/A   Mostly Cloudy
3:54 PM 64.9 °F 46.0 °F 50% 30.00 in 10.0 mi WNW 9.2 mph 18.4 mph N/A   Scattered Clouds
4:54 PM 64.0 °F 46.0 °F 52% 30.00 in 10.0 mi WNW 11.5 mph 18.4 mph N/A   Mostly Cloudy
5:54 PM 60.1 °F 46.0 °F 60% 30.01 in 10.0 mi West 12.7 mph - N/A   Mostly Cloudy
6:54 PM 61.0 °F 44.1 °F 54% 30.03 in 10.0 mi West 12.7 mph 20.7 mph N/A   Scattered Clouds
7:54 PM 59.0 °F 42.1 °F 53% 30.06 in 10.0 mi West 12.7 mph 26.5 mph N/A   Scattered Clouds
8:54 PM 57.9 °F 39.0 °F 49% 30.09 in 10.0 mi WNW 12.7 mph 23.0 mph N/A   Partly Cloudy
9:54 PM 55.9 °F 37.0 °F 49% 30.12 in 10.0 mi West 12.7 mph 20.7 mph N/A   Partly Cloudy
10:54 PM 53.1 °F 37.9 °F 57% 30.14 in 10.0 mi NW 6.9 mph - N/A   Partly Cloudy
11:54 PM 53.1 °F 36.0 °F 52% 30.16 in 10.0 mi WNW 11.5 mph 18.4 mph N/A   Partly Cloudy